Starlink 33808

operational
NORAD ID: 63767 Int'l Des: 2025-089 Owner: SPXS Country: US Constellation: starlink
LEOCIRCULAR

Über Starlink 33808

Beschreibung wird geladen...

Live-Position

3D-Globus wird geladen...

Nächste Überflüge

Höhenverlauf

Altitude vs Time

uPlot chart will show altitude changes over time

Zweizeiliger Elementsatz

1 63767U 25089S 25260.19397522 .00024484 00000-0 89675-3 0 9996
2 63767 43.0023 305.0463 0001405 257.2377 102.8318 15.27563742 22422
Epoch: 17. Sept. 2025 • Age: 24 hours

Aktueller Status

Höhe 483.7 km
Geschwindigkeit 7.62 km/s
Subsatellitenpunkt -6.09°S, 126.69°W
Startdatum 29. Apr. 2025
Alter 0.3 years
Typ internet

Technische Details

Klassifizierung Payload
Masse 575.00 kg
Trockenmasse 530.00 kg
Gesamtmasse 575.00 kg
Länge 0.30 m
Durchmesser 4.10 m
Spannweite 29.00 m
Form Box + pan
Hersteller SPXS
Bus-Typ Starlink V2MO
Phasenstatus In Orbit
Besitzer/Staat SPXS/US

Große Konstellationen

Loading constellations...